This demonstration page uses our WeatherBlox Daily Observations layout. Learn more.

Left ArrowRight Arrow

44.89941, -97.11507

Hourly Observations for May 30, 2022

Temp ( °F °C ) Dew Point ( °F °C ) Humidity (%) Winds ( mph kmh ) Pressure ( in mb ) Visibility ( mi km ) Precip ( " mm )
12:53 am 00:53 Mostly Cloudy 66 18.9 63 17.2 90 90 Calm 29.33 993 9 14 0.00 0.00
1:05 am 01:05 Mostly Cloudy with Thunderstorms 66 18.9 63 17.2 90 90 WSW 3 6 29.31 993 9 14 0.00 0.00
1:48 am 01:48 Mostly Cloudy with Nearby Thunderstorms 66 19 63 17 88 88 VRB 6 9 29.33 993 9 14 0.09 2.29
1:53 am 01:53 Cloudy with Nearby Thunderstorms 67 19.4 63 17.2 87 87 NW 10 17 29.35 994 10 16 0.10 2.54
2:26 am 02:26 Cloudy with Strong Thunderstorms 59 15 56 13.3 90 90 W 15 24 29.37 994 3 5 0.12 3.05
2:34 am 02:34 Cloudy with Thunderstorms 58 14.4 55 12.8 90 90 W 10 17 29.39 995 3 4 0.17 4.32
2:41 am 02:41 Cloudy with Strong Thunderstorms 58 14.4 55 12.8 90 90 W 20 31 29.39 995 3 5 0.22 5.59
2:49 am 02:49 Cloudy with Nearby Thunderstorms 61 16 55 13 83 83 WSW 14 22 29.39 995 6 10 0.23 5.84
2:53 am 02:53 Cloudy with Light Rain 59 15 55 12.8 87 87 WSW 12 19 29.40 996 10 16 0.23 5.84
3:23 am 03:23 Cloudy with Thunderstorms 61 16.1 57 13.9 87 87 SSW 10 17 29.39 995 9 14 0.03 0.76
3:38 am 03:38 Cloudy with Nearby Thunderstorms 61 16.1 57 13.9 87 87 S 12 19 29.39 995 10 16 0.05 1.27
3:53 am 03:53 Cloudy with Nearby Thunderstorms 60 15.6 57 13.9 90 90 S 12 19 29.39 995 10 16 0.07 1.78
4:05 am 04:05 Cloudy with Light Rain 60 15.6 57 13.9 90 90 S 12 19 29.39 995 10 16 0.03 0.76
4:53 am 04:53 Mostly Clear 60 15.6 57 13.9 90 90 SSE 3 6 29.29 992 10 16 0.07 1.78
5:41 am 05:41 Mostly Cloudy 61 16.1 58 14.4 90 90 WSW 17 28 29.35 994 10 16 0.00 0.00
5:49 am 05:49 Mostly Cloudy 61 16 59 15 94 94 W 15 24 29.34 994 10 16 0.00 0.00
5:53 am 05:53 Cloudy 61 16.1 59 15 93 93 W 16 26 29.34 994 10 16 0.00 0.00
6:53 am 06:53 Partly Cloudy 61 16.1 60 15.6 97 97 VRB 6 9 29.37 995 9 14 0.00 0.00
7:53 am 07:53 Mostly Cloudy 61 16.1 59 15 93 93 S 15 24 29.41 996 7 11 0.00 0.00
8:01 am 08:01 Partly Cloudy 61 16.1 59 15 93 93 SE 7 11 29.37 995 7 11 0.00 0.00
8:53 am 08:53 Sunny 63 17.2 60 15.6 90 90 ENE 8 13 29.36 994 10 16 0.00 0.00
9:06 am 09:06 Mostly Sunny 64 17.8 61 16.1 90 90 ENE 6 9 29.37 995 10 16 0.00 0.00
9:21 am 09:21 Mostly Cloudy 64 17.8 60 15.6 87 87 ESE 8 13 29.39 995 10 16 0.00 0.00
9:41 am 09:41 Cloudy 63 17.2 59 15 87 87 SSE 15 24 29.40 996 10 16 0.00 0.00
9:53 am 09:53 Cloudy 61 16.1 58 14.4 90 90 SSE 15 24 29.41 996 10 16 0.00 0.00
10:21 am 10:21 Cloudy 63 17.2 58 14.4 84 84 S 8 13 29.40 996 10 16 0.00 0.00
10:53 am 10:53 Cloudy 64 17.8 59 15 84 84 SW 7 11 29.43 997 10 16 0.00 0.00
11:05 am 11:05 Cloudy 64 17.8 59 15 84 84 SW 8 13 29.41 996 10 16 0.00 0.00
11:53 am 11:53 Sunny 67 19.4 59 15 76 76 VRB 5 7 29.39 995 10 16 0.00 0.00
12:42 pm 12:42 Partly Cloudy with Thunderstorms 65 18.3 59 15 81 81 NNW 10 17 29.32 993 10 16 0.01 0.25
12:53 pm 12:53 Mostly Cloudy with Thunderstorms 64 17.8 60 15.6 87 87 S 3 6 29.35 994 10 16 0.02 0.51
1:09 pm 13:09 Cloudy with Strong Thunderstorms 63 17.2 60 15.6 90 90 E 8 13 29.28 992 2 3 0.21 5.33
1:17 pm 13:17 Cloudy with Thunderstorms 63 17.2 60 15.6 90 90 SSE 14 22 29.35 994 3 5 0.24 6.10
1:53 pm 13:53 Cloudy with Thunderstorms 63 17.2 60 15.6 90 90 W 10 17 29.29 992 10 16 0.31 7.87
2:20 pm 14:20 Cloudy with Strong Thunderstorms 62 16.7 60 15.6 93 93 undefined N/A 29.27 991 2 2 0.29 7.37
2:22 pm 14:22 Cloudy with Strong Thunderstorms 61 16.1 60 15.6 97 97 WNW 21 33 29.26 991 1 1 0.39 9.91
2:31 pm 14:31 Cloudy with Strong Thunderstorms 61 16.1 59 15 93 93 W 24 39 29.32 993 1 2 0.53 13.46
2:36 pm 14:36 Cloudy with Strong Thunderstorms 61 16.1 60 15.6 97 97 WNW 20 31 29.27 991 1 1 0.80 20.32
2:46 pm 14:46 Cloudy with Strong Thunderstorms 60 15.6 59 15 96 96 WNW 10 17 29.32 993 1 2 1.00 25.40
2:53 pm 14:53 Cloudy with Strong Thunderstorms 59 15 58 14.4 96 96 WSW 16 26 29.37 995 1 2 1.18 29.97
2:58 pm 14:58 Cloudy with Strong Thunderstorms 60 15.6 59 15 96 96 WSW 17 28 29.38 995 2 3 0.03 0.76
3:03 pm 15:03 Cloudy with Strong Thunderstorms 61 16.1 60 15.6 97 97 WSW 13 20 29.38 995 3 5 0.06 1.52
3:14 pm 15:14 Cloudy with Nearby Thunderstorms 61 16.1 60 15.6 97 97 W 9 15 29.37 995 5 8 0.08 2.03
3:38 pm 15:38 Cloudy with Light Rain 60 15.6 59 15 96 96 N 18 30 29.28 992 10 16 0.11 2.79
3:53 pm 15:53 Mostly Cloudy 61 16.1 59 15 93 93 N 16 26 29.27 991 10 16 0.11 2.79
4:53 pm 16:53 Partly Cloudy 64 17.8 59 15 84 84 NNE 12 19 29.23 990 10 16 0.00 0.00
5:53 pm 17:53 Mostly Sunny 66 18.9 58 14.4 75 75 S 10 17 29.27 991 10 16 0.00 0.00
6:17 pm 18:17 Mostly Cloudy with Heavy Rain 60 15.6 56 13.3 86 86 WSW 25 41 29.33 993 3 4 0.04 1.02
6:23 pm 18:23 Cloudy with Thunderstorms 59 15 55 12.8 87 87 SW 17 28 29.33 993 3 5 0.07 1.78
6:50 pm 18:50 Mostly Cloudy 61 16 55 13 83 83 SSW 16 26 29.29 992 10 16 0.07 1.78
6:53 pm 18:53 Mostly Cloudy 60 15.6 54 12.2 80 80 SSW 20 31 29.30 992 10 16 0.07 1.78
7:53 pm 19:53 Sunny 60 15.6 55 12.8 84 84 SW 16 26 29.31 993 10 16 0.00 0.00
8:53 pm 20:53 Partly Cloudy 60 15.6 55 12.8 84 84 SSW 10 17 29.32 993 10 16 0.00 0.00
9:53 pm 21:53 Partly Cloudy 60 15.6 56 13.3 86 86 SSW 10 17 29.33 993 10 16 0.00 0.00
10:53 pm 22:53 Mostly Cloudy 61 16.1 55 12.8 81 81 SW 21 33 29.30 992 10 16 0.00 0.00
11:19 pm 23:19 Cloudy 59 15 56 13.3 90 90 SSW 12 19 29.31 992 10 16 0.00 0.00
11:53 pm 23:53 Cloudy 59 15 54 12.2 83 83 SSW 21 33 29.31 993 10 16 0.00 0.00

Powered by AerisWeather